Location: Ammerl�gen
(47.2167°N, 9.6000°E)
Time: 09:47:24
(UTC+00:00)

SL-08 ROCKET BODY - Pass Details

Date: 21 April 2021
Orbit: 896 x 963 km, 82.9° (Epoch: 07 May)

Event Time Altitude Azimuth Distance (km) Brightness Sun altitude
Rises 21:10:07 0° 352° (N) 3,619 8.5 -23.9°
Reaches altitude 10° 21:12:40 10° 355° (N) 2,661 7.6 -24.1°
Maximum altitude 21:18:43 72° 80° (E) 976 4.3 -24.7°
Enters shadow 21:19:43 59° 135° (SE) 1,056 4.3 -24.8°
